ONEWEB-0382 (49308 NORAD) Tracking and Keplerian Element Data

This shows tracking and keplerian element data for the satellite.

Feedback or suggestion? Click here.




ElementValue
Catalog49308
NameONEWEB-0382
Epoch Orbit354
Epoch Day339.91667824
Epoch Year2021
RAAN274.963
Inclination87.2028
Eccentricity0.0013942
Argument of Perigee69.6334
Mean Anonmoly171.4025
Mean Motion14.90992875
Decay Rate-0.00053884
L11 49308U 21090AF 21339.91667824 -.00053884 00000+0 -54956-2 0 9997
L22 49308 87.2028 274.9630 0013942 69.6334 171.4025 14.90992875 3540

Live tracking and technical data element details for ONEWEB-0382 (NORAD 49308). ONEWEB-0382 can be tracked NOW for your location showing map with azimuth and elevation plus other details from your city location.

Track the satellite on the map from your city or location and see movement details for azimuth, elevation, latitude, longitude, range, height, and movement on the map or in text.







IsCatalogInMostPopularTable: catalog: 49308, numindb: 7
Update: records affected: 1



GetName: 49308 ONEWEB-0382

Hit Count: updated at: Mon, 06 Dec 2021 15:04:21 GMT